Here is the Quick Look data you requested

The Data originates at the National Weather Service, and is made available here by the UAlbany Department of Atmospheric and Environmental Sciences

Surface Observations

KNYG 151856Z 16009KT 7SM CLR 35/25 A2990 RMK AO2 SLP126 T03500250=
KNYG 151956Z 19009KT 7SM FEW050 36/24 A2987 RMK AO2 SLP115 T03560244
KNYG 151956Z 19009KT 7SM FEW050 36/24 A2987 RMK AO2 SLP115 T03560244=
KNYG 152056Z 19008KT 7SM FEW050 36/23 A2985 RMK AO2 SLP109 T03560233 56023
KNYG 152056Z 19008KT 7SM FEW050 36/23 A2985 RMK AO2 SLP109 T03560233 56023=
KNYG 152131Z 19006KT 7SM VCTS FEW050 35/22 A2985 RMK AO2 TSB25E30 T03500217
KNYG 152131Z 19006KT 7SM VCTS FEW050 35/22 A2985 RMK AO2 TSB25E30 T03500217=
KNYG 152156Z 19006KT 7SM VCTS FEW050 35/21 A2986 RMK AO2 TSB25E30 SLP111
 T03500211
KNYG 152156Z 19006KT 7SM VCTS FEW050 35/21 A2986 RMK AO2 TSB25E30 SLP111
 T03500211=
KNYG 152256Z 19006KT 7SM VCTS SCT050 BKN070 31/19 A2985 RMK AO2 SLP108 T03110189
KNYG 152256Z 19006KT 7SM VCTS SCT050 BKN070 31/19 A2985 RMK AO2 SLP108
 T03110189=
KNYG 152304Z AUTO 23006KT 7SM FEW090 32/19 A2984 RMK AO2 T03170189
KNYG 152304Z AUTO 23006KT 7SM FEW090 32/19 A2984 RMK AO2 T03170189=
KNYG 152356Z AUTO 00000KT 7SM CLR 31/19 A2984 RMK AO2 SLP104 T03060194 10367
 20300 58005
KNYG 152356Z AUTO 00000KT 7SM CLR 31/19 A2984 RMK AO2 SLP104 T03060194 10367
 20300 58005=
KNYG 160056Z AUTO 00000KT 6SM CLR 30/21 A2986 RMK AO2 SLP111 T03000211
KNYG 160056Z AUTO 00000KT 6SM CLR 30/21 A2986 RMK AO2 SLP111 T03000211=
KNYG 160156Z AUTO VRB03KT 6SM CLR 29/23 A2987 RMK AO2 SLP114 T02940228
KNYG 160156Z AUTO VRB03KT 6SM CLR 29/23 A2987 RMK AO2 SLP114 T02940228=
KNYG 160256Z AUTO 24006KT 5SM CLR 31/22 A2986 RMK AO2 SLP112 T03060217 50008
KNYG 160256Z AUTO 24006KT 5SM CLR 31/22 A2986 RMK AO2 SLP112 T03060217 50008=
KNYG 160356Z AUTO 25004KT 6SM CLR 28/23 A2985 RMK AO2 SLP107 T02780228
KNYG 160356Z AUTO 25004KT 6SM CLR 28/23 A2985 RMK AO2 SLP107 T02780228=
KNYG 160456Z AUTO 23006KT 6SM CLR 29/22 A2984 RMK AO2 SLP104 T02890217 403670256
KNYG 160456Z AUTO 23006KT 6SM CLR 29/22 A2984 RMK AO2 SLP104 T02890217
 403670256=
KNYG 160556Z AUTO VRB03KT 5SM CLR 28/22 A2983 RMK AO2 SLP103 T02830217 10311
 20278 56009
KNYG 160556Z AUTO VRB03KT 5SM CLR 28/22 A2983 RMK AO2 SLP103 T02830217 10311
 20278 56009=
KNYG 160656Z AUTO 00000KT 4SM CLR 28/22 A2983 RMK AO2 SLP103 T02780222
KNYG 160656Z AUTO 00000KT 4SM CLR 28/22 A2983 RMK AO2 SLP103 T02780222=
KNYG 160756Z AUTO 20005KT 4SM CLR 27/22 A2985 RMK AO2 SLP108 T02720222
KNYG 160756Z AUTO 20005KT 4SM CLR 27/22 A2985 RMK AO2 SLP108 T02720222=
KNYG 160856Z AUTO 24004KT 4SM BKN095 27/22 A2986 RMK AO2 SLP111 T02720222 53008
KNYG 160856Z AUTO 24004KT 4SM BKN095 27/22 A2986 RMK AO2 SLP111 T02720222 53008=
KNYG 160956Z AUTO 19004KT 5SM CLR 27/22 A2986 RMK AO2 SLP112 T02670222
KNYG 160956Z AUTO 19004KT 5SM CLR 27/22 A2986 RMK AO2 SLP112 T02670222=
KNYG 161056Z AUTO 3SM CLR 27/22 A2987 RMK AO2 SLP117 T02720222
KNYG 161056Z AUTO 3SM CLR 27/22 A2987 RMK AO2 SLP117 T02720222=
KNYG 161156Z 23003KT 7SM FEW100 28/23 A2989 RMK AO2 SLP122 T02780228 10283
 20261 53011
KNYG 161156Z 23003KT 7SM FEW100 28/23 A2989 RMK AO2 SLP122 T02780228 10283
 20261 53011=
KNYG 161256Z 17005KT 7SM FEW100 29/24 A2989 RMK AO2 SLP123 T02890239
KNYG 161256Z 17005KT 7SM FEW100 29/24 A2989 RMK AO2 SLP123 T02890239=
KNYG 161356Z 16007KT 7SM FEW150 30/24 A2987 RMK AO2 SLP115 T03000244
KNYG 161356Z 16007KT 7SM FEW150 30/24 A2987 RMK AO2 SLP115 T03000244=
KNYG 161456Z 16008KT 7SM FEW150 32/25 A2987 RMK AO2 SLP117 T03170250 55005
KNYG 161456Z 16008KT 7SM FEW150 32/25 A2987 RMK AO2 SLP117 T03170250 55005=
KNYG 161556Z 16008KT 7SM CLR 33/26 A2987 RMK AO2 SLP115 T03330261 $
KNYG 161556Z 16008KT 7SM CLR 33/26 A2987 RMK AO2 SLP115 T03330261 $=
KNYG 161656Z 16008KT 6SM HZ CLR 35/27 A2986 RMK AO2 SLP111 T03500267 $
KNYG 161656Z 16008KT 6SM HZ CLR 35/27 A2986 RMK AO2 SLP111 T03500267 $=
KNYG 161756Z 16008KT 6SM HZ FEW060 37/23 A2982 RMK AO2 SLP099 T03720228 10372
 20278 $
KNYG 161756Z 16008KT 6SM HZ FEW060 37/23 A2982 RMK AO2 SLP099 T03720228 10372
 20278 $=
KNYG 161756Z 16008KT 6SM HZ FEW060 37/23 A2982 RMK AO2 SLP099 T03720228 10372
 20278 $
KNYG 161756Z 16008KT 6SM HZ FEW060 37/23 A2982 RMK AO2 SLP099 T03720228 10372
 20278 $=
KNYG 161856Z 19014G24KT 6SM HZ FEW060 37/23 A2981 RMK AO2 RAB21E26 SLP095 P0000
 T03720228 $
KNYG 161856Z 19014G24KT 6SM HZ FEW060 37/23 A2981 RMK AO2 RAB21E26 SLP095 P0000
 T03720228 $=
KNYG 161856Z 19014G24KT 6SM HZ FEW060 37/23 A2981 RMK AO2 RAB21E26 SLP095 P0000
 T03720228 $
KNYG 161856Z 19014G24KT 6SM HZ FEW060 37/23 A2981 RMK AO2 RAB21E26 SLP095 P0000
 T03720228 $=

Decoded Surface Observations


The weather observed at QUANTICO MCAF, VA (KNYG) at 02:56 PM EDT was:
  The skies were clear.
  Temperature: 95F ( 35C)  Dewpoint:  77F ( 25C)  Relative Humidity:  56%
  Winds from the SSE(160 degs) at 10 mph.
  Pressure: 1012.6 millibars.  Altimeter:29.90 inches of mercury.
  The prevailing visibility was 7 miles.

The weather observed at QUANTICO MCAF, VA (KNYG) at 03:56 PM EDT was:
  The skies were mostly clear.
  Temperature: 96F ( 36C)  Dewpoint:  76F ( 24C)  Relative Humidity:  52%
  Winds from the S  (190 degs) at 10 mph.
  Pressure: 1011.5 millibars.  Altimeter:29.87 inches of mercury.
  The prevailing visibility was 7 miles.

The weather observed at QUANTICO MCAF, VA (KNYG) at 03:56 PM EDT was:
  The skies were mostly clear.
  Temperature: 97F ( 36C)  Dewpoint:  75F ( 24C)  Relative Humidity:  50%
  Winds from the S  (190 degs) at 10 mph.
  Pressure: 1011.5 millibars.  Altimeter:29.87 inches of mercury.
  The prevailing visibility was 7 miles.

The weather observed at QUANTICO MCAF, VA (KNYG) at 04:56 PM EDT was:
  The skies were mostly clear.
  Temperature: 96F ( 36C)  Dewpoint:  74F ( 23C)  Relative Humidity:  49%
  Winds from the S  (190 degs) at  9 mph.
  Pressure: 1010.9 millibars.  Altimeter:29.85 inches of mercury.
  The prevailing visibility was 7 miles.

The weather observed at QUANTICO MCAF, VA (KNYG) at 04:56 PM EDT was:
  The skies were mostly clear.
  Temperature: 96F ( 36C)  Dewpoint:  74F ( 23C)  Relative Humidity:  49%
  Winds from the S  (190 degs) at  9 mph.
  Pressure: 1010.9 millibars.  Altimeter:29.85 inches of mercury.
  The prevailing visibility was 7 miles.

The weather observed at QUANTICO MCAF, VA (KNYG) at 05:31 PM EDT was:
  The skies were mostly clear.
  The weather reported was a thunderstorm in the vicinity.
  Temperature: 95F ( 35C)  Dewpoint:  71F ( 22C)  Relative Humidity:  46%
  Winds from the S  (190 degs) at  7 mph.
  Altimeter:29.85 inches of mercury.
  The prevailing visibility was 7 miles.

The weather observed at QUANTICO MCAF, VA (KNYG) at 05:31 PM EDT was:
  The skies were mostly clear.
  The weather reported was a thunderstorm in the vicinity.
  Temperature: 95F ( 35C)  Dewpoint:  72F ( 22C)  Relative Humidity:  47%
  Winds from the S  (190 degs) at  7 mph.
  Altimeter:29.85 inches of mercury.
  The prevailing visibility was 7 miles.

The weather observed at QUANTICO MCAF, VA (KNYG) at 05:56 PM EDT was:
  The skies were mostly clear.
  The weather reported was a thunderstorm in the vicinity.
  Temperature: 95F ( 35C)  Dewpoint:  70F ( 21C)  Relative Humidity:  44%
  Winds from the S  (190 degs) at  7 mph.
  Pressure: 1011.1 millibars.  Altimeter:29.86 inches of mercury.
  The prevailing visibility was 7 miles.

The weather observed at QUANTICO MCAF, VA (KNYG) at 05:56 PM EDT was:
  The skies were mostly clear.
  The weather reported was a thunderstorm in the vicinity.
  Temperature: 95F ( 35C)  Dewpoint:  70F ( 21C)  Relative Humidity:  44%
  Winds from the S  (190 degs) at  7 mph.
  Pressure: 1011.1 millibars.  Altimeter:29.86 inches of mercury.
  The prevailing visibility was 7 miles.

The weather observed at QUANTICO MCAF, VA (KNYG) at 06:56 PM EDT was:
  The skies were mostly cloudy.
  The weather reported was a thunderstorm in the vicinity.
  Temperature: 88F ( 31C)  Dewpoint:  66F ( 19C)  Relative Humidity:  48%
  Winds from the S  (190 degs) at  7 mph.
  Pressure: 1010.8 millibars.  Altimeter:29.85 inches of mercury.
  The prevailing visibility was 7 miles.

The weather observed at QUANTICO MCAF, VA (KNYG) at 06:56 PM EDT was:
  The skies were mostly cloudy.
  The weather reported was a thunderstorm in the vicinity.
  Temperature: 88F ( 31C)  Dewpoint:  66F ( 19C)  Relative Humidity:  49%
  Winds from the S  (190 degs) at  7 mph.
  Pressure: 1010.8 millibars.  Altimeter:29.85 inches of mercury.
  The prevailing visibility was 7 miles.

The weather observed at QUANTICO MCAF, VA (KNYG) at 07:04 PM EDT was:
  The skies were mostly clear.
  Temperature: 89F ( 32C)  Dewpoint:  66F ( 19C)  Relative Humidity:  47%
  Winds from the SW (230 degs) at  7 mph.
  Altimeter:29.84 inches of mercury.
  The prevailing visibility was 7 miles.

The weather observed at QUANTICO MCAF, VA (KNYG) at 07:04 PM EDT was:
  The skies were mostly clear.
  Temperature: 90F ( 32C)  Dewpoint:  66F ( 19C)  Relative Humidity:  46%
  Winds from the SW (230 degs) at  7 mph.
  Altimeter:29.84 inches of mercury.
  The prevailing visibility was 7 miles.

The weather observed at QUANTICO MCAF, VA (KNYG) at 07:56 PM EDT was:
  The skies were clear.
  Temperature: 87F ( 31C)  Dewpoint:  67F ( 19C)  Relative Humidity:  51%
  Winds from the CLM(CLM degs) at  0 mph.
  Pressure: 1010.4 millibars.  Altimeter:29.84 inches of mercury.
  The prevailing visibility was 7 miles.
  The maximum temperature in the past 6 hours was  98F.
  The minimum temperature in the past 6 hours was  86F.

The weather observed at QUANTICO MCAF, VA (KNYG) at 07:56 PM EDT was:
  The skies were clear.
  Temperature: 87F ( 31C)  Dewpoint:  67F ( 19C)  Relative Humidity:  51%
  Winds from the CLM(CLM degs) at  0 mph.
  Pressure: 1010.4 millibars.  Altimeter:29.84 inches of mercury.
  The prevailing visibility was 7 miles.
  The maximum temperature in the past 6 hours was  98F.
  The minimum temperature in the past 6 hours was  86F.

The weather observed at QUANTICO MCAF, VA (KNYG) at 08:56 PM EDT was:
  The skies were clear.
  Temperature: 86F ( 30C)  Dewpoint:  70F ( 21C)  Relative Humidity:  59%
  Winds from the CLM(CLM degs) at  0 mph.
  Pressure: 1011.1 millibars.  Altimeter:29.86 inches of mercury.
  The prevailing visibility was 6 miles.

The weather observed at QUANTICO MCAF, VA (KNYG) at 08:56 PM EDT was:
  The skies were clear.
  Temperature: 86F ( 30C)  Dewpoint:  70F ( 21C)  Relative Humidity:  59%
  Winds from the CLM(CLM degs) at  0 mph.
  Pressure: 1011.1 millibars.  Altimeter:29.86 inches of mercury.
  The prevailing visibility was 6 miles.

The weather observed at QUANTICO MCAF, VA (KNYG) at 09:56 PM EDT was:
  The skies were clear.
  Temperature: 85F ( 29C)  Dewpoint:  73F ( 23C)  Relative Humidity:  68%
  Winds from the VRB(VRB degs) at  3 mph.
  Pressure: 1011.4 millibars.  Altimeter:29.87 inches of mercury.
  The prevailing visibility was 6 miles.

The weather observed at QUANTICO MCAF, VA (KNYG) at 09:56 PM EDT was:
  The skies were clear.
  Temperature: 84F ( 29C)  Dewpoint:  73F ( 23C)  Relative Humidity:  70%
  Winds from the VRB(VRB degs) at  3 mph.
  Pressure: 1011.4 millibars.  Altimeter:29.87 inches of mercury.
  The prevailing visibility was 6 miles.

The weather observed at QUANTICO MCAF, VA (KNYG) at 10:56 PM EDT was:
  The skies were clear.
  Temperature: 87F ( 31C)  Dewpoint:  71F ( 22C)  Relative Humidity:  59%
  Winds from the SW (240 degs) at  7 mph.
  Pressure: 1011.2 millibars.  Altimeter:29.86 inches of mercury.
  The prevailing visibility was 5 miles.

The weather observed at QUANTICO MCAF, VA (KNYG) at 10:56 PM EDT was:
  The skies were clear.
  Temperature: 87F ( 31C)  Dewpoint:  71F ( 22C)  Relative Humidity:  59%
  Winds from the SW (240 degs) at  7 mph.
  Pressure: 1011.2 millibars.  Altimeter:29.86 inches of mercury.
  The prevailing visibility was 5 miles.

The weather observed at QUANTICO MCAF, VA (KNYG) at 11:56 PM EDT was:
  The skies were clear.
  Temperature: 82F ( 28C)  Dewpoint:  73F ( 23C)  Relative Humidity:  74%
  Winds from the WSW(250 degs) at  5 mph.
  Pressure: 1010.7 millibars.  Altimeter:29.85 inches of mercury.
  The prevailing visibility was 6 miles.

The weather observed at QUANTICO MCAF, VA (KNYG) at 11:56 PM EDT was:
  The skies were clear.
  Temperature: 82F ( 28C)  Dewpoint:  73F ( 23C)  Relative Humidity:  74%
  Winds from the WSW(250 degs) at  5 mph.
  Pressure: 1010.7 millibars.  Altimeter:29.85 inches of mercury.
  The prevailing visibility was 6 miles.

The weather observed at QUANTICO MCAF, VA (KNYG) at 12:56 AM EDT was:
  The skies were clear.
  Temperature: 84F ( 29C)  Dewpoint:  71F ( 22C)  Relative Humidity:  65%
  Winds from the SW (230 degs) at  7 mph.
  Pressure: 1010.4 millibars.  Altimeter:29.84 inches of mercury.
  The prevailing visibility was 6 miles.
  The maximum temperature in the past 24 hours was  98F.
  The minimum temperature in the past 24 hours was  78F.

The weather observed at QUANTICO MCAF, VA (KNYG) at 12:56 AM EDT was:
  The skies were clear.
  Temperature: 84F ( 29C)  Dewpoint:  71F ( 22C)  Relative Humidity:  65%
  Winds from the SW (230 degs) at  7 mph.
  Pressure: 1010.4 millibars.  Altimeter:29.84 inches of mercury.
  The prevailing visibility was 6 miles.

The weather observed at QUANTICO MCAF, VA (KNYG) at 01:56 AM EDT was:
  The skies were clear.
  Temperature: 83F ( 28C)  Dewpoint:  71F ( 22C)  Relative Humidity:  67%
  Winds from the VRB(VRB degs) at  3 mph.
  Pressure: 1010.3 millibars.  Altimeter:29.83 inches of mercury.
  The prevailing visibility was 5 miles.
  The maximum temperature in the past 6 hours was  88F.
  The minimum temperature in the past 6 hours was  82F.

The weather observed at QUANTICO MCAF, VA (KNYG) at 01:56 AM EDT was:
  The skies were clear.
  Temperature: 83F ( 28C)  Dewpoint:  71F ( 22C)  Relative Humidity:  67%
  Winds from the VRB(VRB degs) at  3 mph.
  Pressure: 1010.3 millibars.  Altimeter:29.83 inches of mercury.
  The prevailing visibility was 5 miles.
  The maximum temperature in the past 6 hours was  88F.
  The minimum temperature in the past 6 hours was  82F.

The weather observed at QUANTICO MCAF, VA (KNYG) at 02:56 AM EDT was:
  The skies were clear.
  Temperature: 82F ( 28C)  Dewpoint:  72F ( 22C)  Relative Humidity:  72%
  Winds from the CLM(CLM degs) at  0 mph.
  Pressure: 1010.3 millibars.  Altimeter:29.83 inches of mercury.
  The prevailing visibility was 4 miles.

The weather observed at QUANTICO MCAF, VA (KNYG) at 02:56 AM EDT was:
  The skies were clear.
  Temperature: 82F ( 28C)  Dewpoint:  72F ( 22C)  Relative Humidity:  70%
  Winds from the CLM(CLM degs) at  0 mph.
  Pressure: 1010.3 millibars.  Altimeter:29.83 inches of mercury.
  The prevailing visibility was 4 miles.

The weather observed at QUANTICO MCAF, VA (KNYG) at 03:56 AM EDT was:
  The skies were clear.
  Temperature: 81F ( 27C)  Dewpoint:  72F ( 22C)  Relative Humidity:  74%
  Winds from the SSW(200 degs) at  6 mph.
  Pressure: 1010.8 millibars.  Altimeter:29.85 inches of mercury.
  The prevailing visibility was 4 miles.

The weather observed at QUANTICO MCAF, VA (KNYG) at 03:56 AM EDT was:
  The skies were clear.
  Temperature: 81F ( 27C)  Dewpoint:  72F ( 22C)  Relative Humidity:  74%
  Winds from the SSW(200 degs) at  6 mph.
  Pressure: 1010.8 millibars.  Altimeter:29.85 inches of mercury.
  The prevailing visibility was 4 miles.

The weather observed at QUANTICO MCAF, VA (KNYG) at 04:56 AM EDT was:
  The skies were mostly cloudy.
  Temperature: 81F ( 27C)  Dewpoint:  72F ( 22C)  Relative Humidity:  74%
  Winds from the SW (240 degs) at  5 mph.
  Pressure: 1011.1 millibars.  Altimeter:29.86 inches of mercury.
  The prevailing visibility was 4 miles.

The weather observed at QUANTICO MCAF, VA (KNYG) at 04:56 AM EDT was:
  The skies were mostly cloudy.
  Temperature: 81F ( 27C)  Dewpoint:  72F ( 22C)  Relative Humidity:  74%
  Winds from the SW (240 degs) at  5 mph.
  Pressure: 1011.1 millibars.  Altimeter:29.86 inches of mercury.
  The prevailing visibility was 4 miles.

The weather observed at QUANTICO MCAF, VA (KNYG) at 05:56 AM EDT was:
  The skies were clear.
  Temperature: 80F ( 27C)  Dewpoint:  72F ( 22C)  Relative Humidity:  76%
  Winds from the S  (190 degs) at  5 mph.
  Pressure: 1011.2 millibars.  Altimeter:29.86 inches of mercury.
  The prevailing visibility was 5 miles.

The weather observed at QUANTICO MCAF, VA (KNYG) at 05:56 AM EDT was:
  The skies were clear.
  Temperature: 81F ( 27C)  Dewpoint:  72F ( 22C)  Relative Humidity:  74%
  Winds from the S  (190 degs) at  5 mph.
  Pressure: 1011.2 millibars.  Altimeter:29.86 inches of mercury.
  The prevailing visibility was 5 miles.

The weather observed at QUANTICO MCAF, VA (KNYG) at 06:56 AM EDT was:
  The skies were clear.
  Temperature: 81F ( 27C)  Dewpoint:  72F ( 22C)  Relative Humidity:  74%
  Winds were not reported.
  Pressure: 1011.7 millibars.  Altimeter:29.87 inches of mercury.
  The prevailing visibility was 3 miles.

The weather observed at QUANTICO MCAF, VA (KNYG) at 06:56 AM EDT was:
  The skies were clear.
  Temperature: 81F ( 27C)  Dewpoint:  72F ( 22C)  Relative Humidity:  74%
  Winds were not reported.
  Pressure: 1011.7 millibars.  Altimeter:29.87 inches of mercury.
  The prevailing visibility was 3 miles.

The weather observed at QUANTICO MCAF, VA (KNYG) at 07:56 AM EDT was:
  The skies were mostly clear.
  Temperature: 82F ( 28C)  Dewpoint:  73F ( 23C)  Relative Humidity:  74%
  Winds from the SW (230 degs) at  3 mph.
  Pressure: 1012.2 millibars.  Altimeter:29.89 inches of mercury.
  The prevailing visibility was 7 miles.
  The maximum temperature in the past 6 hours was  83F.
  The minimum temperature in the past 6 hours was  79F.

The weather observed at QUANTICO MCAF, VA (KNYG) at 07:56 AM EDT was:
  The skies were mostly clear.
  Temperature: 82F ( 28C)  Dewpoint:  73F ( 23C)  Relative Humidity:  74%
  Winds from the SW (230 degs) at  3 mph.
  Pressure: 1012.2 millibars.  Altimeter:29.89 inches of mercury.
  The prevailing visibility was 7 miles.
  The maximum temperature in the past 6 hours was  83F.
  The minimum temperature in the past 6 hours was  79F.

The weather observed at QUANTICO MCAF, VA (KNYG) at 08:56 AM EDT was:
  The skies were mostly clear.
  Temperature: 84F ( 29C)  Dewpoint:  75F ( 24C)  Relative Humidity:  74%
  Winds from the S  (170 degs) at  6 mph.
  Pressure: 1012.3 millibars.  Altimeter:29.89 inches of mercury.
  The prevailing visibility was 7 miles.

The weather observed at QUANTICO MCAF, VA (KNYG) at 08:56 AM EDT was:
  The skies were mostly clear.
  Temperature: 84F ( 29C)  Dewpoint:  75F ( 24C)  Relative Humidity:  74%
  Winds from the S  (170 degs) at  6 mph.
  Pressure: 1012.3 millibars.  Altimeter:29.89 inches of mercury.
  The prevailing visibility was 7 miles.

The weather observed at QUANTICO MCAF, VA (KNYG) at 09:56 AM EDT was:
  The skies were mostly clear.
  Temperature: 86F ( 30C)  Dewpoint:  76F ( 24C)  Relative Humidity:  72%
  Winds from the SSE(160 degs) at  8 mph.
  Pressure: 1011.5 millibars.  Altimeter:29.87 inches of mercury.
  The prevailing visibility was 7 miles.

The weather observed at QUANTICO MCAF, VA (KNYG) at 09:56 AM EDT was:
  The skies were mostly clear.
  Temperature: 86F ( 30C)  Dewpoint:  75F ( 24C)  Relative Humidity:  70%
  Winds from the SSE(160 degs) at  8 mph.
  Pressure: 1011.5 millibars.  Altimeter:29.87 inches of mercury.
  The prevailing visibility was 7 miles.

The weather observed at QUANTICO MCAF, VA (KNYG) at 10:56 AM EDT was:
  The skies were mostly clear.
  Temperature: 89F ( 32C)  Dewpoint:  77F ( 25C)  Relative Humidity:  68%
  Winds from the SSE(160 degs) at  9 mph.
  Pressure: 1011.7 millibars.  Altimeter:29.87 inches of mercury.
  The prevailing visibility was 7 miles.

The weather observed at QUANTICO MCAF, VA (KNYG) at 10:56 AM EDT was:
  The skies were mostly clear.
  Temperature: 89F ( 32C)  Dewpoint:  77F ( 25C)  Relative Humidity:  68%
  Winds from the SSE(160 degs) at  9 mph.
  Pressure: 1011.7 millibars.  Altimeter:29.87 inches of mercury.
  The prevailing visibility was 7 miles.

The weather observed at QUANTICO MCAF, VA (KNYG) at 11:56 AM EDT was:
  The skies were clear.
  Temperature: 92F ( 33C)  Dewpoint:  79F ( 26C)  Relative Humidity:  66%
  Winds from the SSE(160 degs) at  9 mph.
  Pressure: 1011.5 millibars.  Altimeter:29.87 inches of mercury.
  The prevailing visibility was 7 miles.

The weather observed at QUANTICO MCAF, VA (KNYG) at 11:56 AM EDT was:
  The skies were clear.
  Temperature: 92F ( 33C)  Dewpoint:  79F ( 26C)  Relative Humidity:  66%
  Winds from the SSE(160 degs) at  9 mph.
  Pressure: 1011.5 millibars.  Altimeter:29.87 inches of mercury.
  The prevailing visibility was 7 miles.

The weather observed at QUANTICO MCAF, VA (KNYG) at 12:56 PM EDT was:
  The skies were clear.
  The weather reported was haze.
  Temperature: 95F ( 35C)  Dewpoint:  80F ( 27C)  Relative Humidity:  62%
  Winds from the SSE(160 degs) at  9 mph.
  Pressure: 1011.1 millibars.  Altimeter:29.86 inches of mercury.
  The prevailing visibility was 6 miles.

The weather observed at QUANTICO MCAF, VA (KNYG) at 12:56 PM EDT was:
  The skies were clear.
  The weather reported was haze.
  Temperature: 95F ( 35C)  Dewpoint:  80F ( 27C)  Relative Humidity:  62%
  Winds from the SSE(160 degs) at  9 mph.
  Pressure: 1011.1 millibars.  Altimeter:29.86 inches of mercury.
  The prevailing visibility was 6 miles.

The weather observed at QUANTICO MCAF, VA (KNYG) at 01:56 PM EDT was:
  The skies were mostly clear.
  The weather reported was haze.
  Temperature: 99F ( 37C)  Dewpoint:  73F ( 23C)  Relative Humidity:  44%
  Winds from the SSE(160 degs) at  9 mph.
  Pressure: 1009.9 millibars.  Altimeter:29.82 inches of mercury.
  The prevailing visibility was 6 miles.
  The maximum temperature in the past 6 hours was  99F.
  The minimum temperature in the past 6 hours was  82F.

The weather observed at QUANTICO MCAF, VA (KNYG) at 01:56 PM EDT was:
  The skies were mostly clear.
  The weather reported was haze.
  Temperature: 99F ( 37C)  Dewpoint:  73F ( 23C)  Relative Humidity:  44%
  Winds from the SSE(160 degs) at  9 mph.
  Pressure: 1009.9 millibars.  Altimeter:29.82 inches of mercury.
  The prevailing visibility was 6 miles.
  The maximum temperature in the past 6 hours was  99F.
  The minimum temperature in the past 6 hours was  82F.

The weather observed at QUANTICO MCAF, VA (KNYG) at 01:56 PM EDT was:
  The skies were mostly clear.
  The weather reported was haze.
  Temperature: 99F ( 37C)  Dewpoint:  73F ( 23C)  Relative Humidity:  44%
  Winds from the SSE(160 degs) at  9 mph.
  Pressure: 1009.9 millibars.  Altimeter:29.82 inches of mercury.
  The prevailing visibility was 6 miles.
  The maximum temperature in the past 6 hours was  99F.
  The minimum temperature in the past 6 hours was  82F.

The weather observed at QUANTICO MCAF, VA (KNYG) at 01:56 PM EDT was:
  The skies were mostly clear.
  The weather reported was haze.
  Temperature: 99F ( 37C)  Dewpoint:  73F ( 23C)  Relative Humidity:  44%
  Winds from the SSE(160 degs) at  9 mph.
  Pressure: 1009.9 millibars.  Altimeter:29.82 inches of mercury.
  The prevailing visibility was 6 miles.
  The maximum temperature in the past 6 hours was  99F.
  The minimum temperature in the past 6 hours was  82F.

The weather observed at QUANTICO MCAF, VA (KNYG) at 02:56 PM EDT was:
  The skies were mostly clear.
  The weather reported was haze.
  Temperature: 99F ( 37C)  Dewpoint:  73F ( 23C)  Relative Humidity:  44%
  Winds from the S  (190 degs) at 16 mph.
  Pressure: 1009.5 millibars.  Altimeter:29.81 inches of mercury.
  The prevailing visibility was 6 miles.
  There has been 0.00 inches of precipitation in the past hour.

The weather observed at QUANTICO MCAF, VA (KNYG) at 02:56 PM EDT was:
  The skies were mostly clear.
  The weather reported was haze.
  Temperature: 99F ( 37C)  Dewpoint:  73F ( 23C)  Relative Humidity:  44%
  Winds from the S  (190 degs) at 16 mph.
  Pressure: 1009.5 millibars.  Altimeter:29.81 inches of mercury.
  The prevailing visibility was 6 miles.
  There has been 0.00 inches of precipitation in the past hour.

The weather observed at QUANTICO MCAF, VA (KNYG) at 02:56 PM EDT was:
  The skies were mostly clear.
  The weather reported was haze.
  Temperature: 99F ( 37C)  Dewpoint:  73F ( 23C)  Relative Humidity:  44%
  Winds from the S  (190 degs) at 16 mph.
  Pressure: 1009.5 millibars.  Altimeter:29.81 inches of mercury.
  The prevailing visibility was 6 miles.
  There has been 0.00 inches of precipitation in the past hour.

The weather observed at QUANTICO MCAF, VA (KNYG) at 02:56 PM EDT was:
  The skies were mostly clear.
  The weather reported was haze.
  Temperature: 99F ( 37C)  Dewpoint:  73F ( 23C)  Relative Humidity:  44%
  Winds from the S  (190 degs) at 16 mph.
  Pressure: 1009.5 millibars.  Altimeter:29.81 inches of mercury.
  The prevailing visibility was 6 miles.
  There has been 0.00 inches of precipitation in the past hour.

Short Range Forecast

Sorry no data found for nyg
Make sure nyg is a valid station
You might need to specify a nearby major city
Try Again

Zone Forecast

VAZ055-162100-
Stafford-
Including the city of Falmouth
133 PM EDT Tue Jul 16 2024

...EXCESSIVE HEAT WARNING IN EFFECT UNTIL 8 PM EDT THIS EVENING...
...HEAT ADVISORY IN EFFECT FROM 11 AM TO 8 PM EDT WEDNESDAY...

.THIS AFTERNOON...Mostly sunny with scattered showers and
thunderstorms. Hot with highs around 101. Southwest winds around
10 mph with gusts up to 20 mph. Chance of rain 30 percent. Heat
index values up to 111.
.TONIGHT...Mostly cloudy with scattered showers and thunderstorms
in the evening, then partly cloudy after midnight. Lows in the
mid 70s. Southwest winds 5 to 10 mph. Chance of rain 30 percent.
.WEDNESDAY...Mostly sunny. Showers and scattered thunderstorms in
the afternoon. Hot with highs in the upper 90s. Southwest winds
5 to 10 mph. Chance of rain 80 percent. Heat index values up to
111.
.WEDNESDAY NIGHT...Showers and numerous thunderstorms in the
evening, then numerous showers and scattered thunderstorms after
midnight. Lows in the lower 70s. Southwest winds 5 to 10 mph.
Chance of rain 80 percent.
.THURSDAY...Mostly cloudy. Scattered showers in the morning, then
scattered showers and thunderstorms in the afternoon. Highs in
the mid 80s. North winds around 5 mph. Chance of rain 50 percent.
.THURSDAY NIGHT...Mostly cloudy. Lows in the mid 60s.
.FRIDAY...Mostly sunny. Highs in the mid 80s.
.FRIDAY NIGHT...Mostly cloudy. Lows in the upper 60s.
.SATURDAY...Partly sunny with a chance of showers and
thunderstorms. Highs in the mid 80s. Chance of rain 30 percent.
.SATURDAY NIGHT...Mostly cloudy. Lows in the upper 60s.
.SUNDAY...Partly sunny. Highs in the upper 80s.
.SUNDAY NIGHT...Mostly cloudy with a chance of showers and
thunderstorms. Lows around 70. Chance of rain 30 percent.
.MONDAY...Partly sunny with a chance of showers and
thunderstorms. Highs in the upper 80s. Chance of rain 50 percent.


State Forecast

Sorry no data found for nyg
Make sure nyg is a valid station
You might need to specify a nearby major city
Try Again

State Forecast Discussion

Sorry no data found for nyg
Make sure nyg is a valid station
You might need to specify a nearby major city
Try Again

GFS Short-Range Model Output Statistics (MOS) Forecast

KNYG   GFS MOS GUIDANCE    7/16/2024  1200 UTC
DT /JULY 16/JULY 17                /JULY 18                /JULY 19
HR   18 21 00 03 06 09 12 15 18 21 00 03 06 09 12 15 18 21 00 06 12
N/X                    78          96          74          88    68
TMP  96 98 92 86 83 80 82 90 94 93 87 81 77 75 76 81 85 85 81 73 72
DPT  70 70 74 75 73 73 74 74 73 72 74 74 71 70 70 69 68 68 69 67 63
CLD  BK SC BK OV SC SC SC BK BK OV OV OV OV OV OV BK BK BK BK BK SC
WDR  19 21 26 30 29 27 22 19 20 23 27 26 29 32 34 02 03 12 09 33 02
WSP  11 11 05 04 04 04 05 07 10 12 07 04 05 05 06 06 06 06 04 05 09
P06         5    19     7     0    56    59    13    18     9 15 13
P12                    29          63          68          23    18
Q06         0     0     0     0     3     2     0     0     0  0  0
Q12                     0           2           2           0     0
T06     27/27 24/11  3/ 1  2/ 6 47/34 24/10  2/ 2  5/ 3 12/16  3/ 0
T12           38/36        3/ 8       53/35        7/ 5    16/18
CIG   8  8  8  8  8  8  8  8  8  8  6  6  7  7  7  7  7  8  8  8  8
VIS   7  7  7  7  7  7  7  7  7  7  7  7  7  7  7  7  7  7  7  7  7
OBV   N  N  N  N  N  N  N  N  N  N  N  N  N  N  N  N  N  N  N  N  N

GFS Long-Range Model Output Statistics (MOS) Forecast

KNYG   GFSX MOS GUIDANCE   7/16/2024  1200 UTC
FHR  24  36| 48  60| 72  84| 96 108|120 132|144 156|168 180|192
     WED 17| THU 18| FRI 19| SAT 20| SUN 21| MON 22| TUE 23|WED CLIMO
N/X  78  96| 74  88| 68  87| 72  88| 74  90| 73  90| 73  89| 73 68 88
TMP  82  87| 76  81| 72  82| 76  83| 77  84| 77  83| 76  83| 77
DPT  74  74| 70  69| 63  65| 68  71| 71  72| 71  70| 70  73| 70
CLD  PC  OV| OV  OV| PC  PC| PC  OV| OV  OV| OV  OV| OV  PC| PC
WND   5  12|  7   6|  9   9|  6   8|  6   6|  6   6|  6   9|  7
P12  29  63| 68  23| 18   7| 12  18| 20  29| 26  25| 30  28| 28999999
P24      66|     71|     19|     18|     42|     39|     49|       31
Q12   0   2|  2   0|  0   0|  0   0|  0   0|  0   0|       |
Q24       1|      2|      0|      0|      1|      0|       |
T12  24  47| 24  14| 11   9|  5  17| 14  31| 21  30| 21  28| 16
T24        | 47    | 17    |  9    | 19    | 38    | 38    | 31

NGM Model Output Statistics (MOS) Forecast

Climatological Summary

Sorry no data found for nyg
Make sure nyg is a valid station
You might need to specify a nearby major city
Try Again

Watch and Warning Statment

Sorry no data found for nyg
Make sure nyg is a valid station
You might need to specify a nearby major city
or it could be THERE ARE NO WATCHES OR WARNINGS for nyg
Try Again

Park/Ski Recreation Report/Forecast

Sorry no data found for nyg
Make sure nyg is a valid station
You might need to specify a nearby major city
Try Again